Tracking 29892 objects as of 21-Nov-2024
HD Live streaming from Space Station
objects crossing your sky now

AEROCUBE 14A


AEROCUBE 14A is no longer on orbit


NORAD ID: 45114
Int'l Code: 2019-071D
Perigee: N/A
Apogee: N/A
Inclination: N/A
Period: N/A
Semi major axis: N/A
RCS: N/A
Launch date: November 2, 2019
Source: United States (US)
Launch site: WALLOPS ISLAND (WLPIS)
Decay date: 2023-02-04
Your satellite tracking list
Your tracking list is empty




NASA's NSSDC Master Catalog

Two Line Element Set (TLE):
1 45114U 19071D   23035.20803024  .07996207  12192-4  11053-2 0  9996
2 45114  51.6037 325.3006 0003754 216.8894 143.1872 16.34314694169660
Source of the keplerian elements: Caltech